* Astronomy

Members Login
Username 
 
Password 
    Remember Me  
Post Info TOPIC: NAVSTAR 47 (PAM-D) rocket body re-entry


L

Posts: 131433
Date:
RE: NAVSTAR 47 (PAM-D) rocket body re-entry
Permalink  
 


Update
The Delta-7925 rocket body (PAM-D) is predicted to re-enter the Earths atmosphere on the 22nd June, 2011 @ 13:20 GMT 2 hours.

NAVSTAR 47 RB (PAM-D)
1 26362U 00025C 11173.40822906 .18181737 52511-5 29225-3 0 4689
2 26362 038.6234 191.8942 0047282 241.1200 261.2184 16.42091499343654

Period: 88.76 minutes
Inclination: 38.63
Apogee: 278 km
Perigee: 149 km
Revolution Number: 34368
Predicted Location: 38.1S, 3.6E



__________________


L

Posts: 131433
Date:
Permalink  
 

Update
The Delta-7925 rocket body (PAM-D) is predicted to re-enter the Earths atmosphere on the 22nd June, 2011 @ 13:34 GMT 15 hours.

NAVSTAR 47 RB (PAM-D)
1 26362U 00025C 11172.49094792 .06236763 49730-5 57809-3 0 4631
2 26362 038.6295 198.3399 0099155 227.3615 283.2084 16.22321659343500

Period: 88.76 minutes
Inclination: 38.63
Apogee: 278 km
Perigee: 149 km
Revolution Number: 34368
Predicted Location: 15.1S, 58.4E



__________________


L

Posts: 131433
Date:
Permalink  
 

Update
The Delta-7925 rocket body (PAM-D) is predicted to re-enter the Earths atmosphere on the 22nd June, 2011 @ 10:54 GMT 24 hours.

NAVSTAR 47 RB (PAM-D)
1 26362U 00025C 11171.56205917 .04270696 48879-5 73327-3 0 4593
2 26362 038.6308 204.7487 0131050 217.0524 277.5340 16.12595873343355

Period: 89.83 minutes
Inclination: 38.63
Apogee: 374 km
Perigee: 158 km
Revolution Number: 34368
Predicted Location: 26.4N, 157.1E



__________________


L

Posts: 131433
Date:
Permalink  
 

Update
The Delta-7925 rocket body (PAM-D) is predicted to re-enter the Earths atmosphere on the 22nd June, 2011 @ 14:43 GMT 48 hours.

NAVSTAR 47 RB (PAM-D)
1 26362U 00025C 11170.85546296 .03411596 48539-5 72821-3 0 4554
2 26362 038.6314 209.5684 0149956 210.0912 143.5623 16.06928741343232

Period: 89.83 minutes
Inclination: 38.63
Apogee: 374 km
Perigee: 158 km
Revolution Number: 34369
Predicted Location: 38.1S, 318.4E



__________________


L

Posts: 131433
Date:
PAM-D re-entry
Permalink  
 


Update
The Delta-7925 rocket body (PAM-D) is predicted to re-enter the Earths atmosphere on the 22nd June, 2011 @ 09:23 GMT 48 hours.

NAVSTAR 47 RB (PAM-D)
1 26362U 00025C 11169.51083572 .03242492 47724-5 88514-3 0 4501
2 26362 038.6334 218.6562 0181529 197.6021 307.4533 15.98058406343023

Period: 90.18 minutes
Inclination: 38.64
Apogee: 409 km
Perigee: 158 km
Revolution Number: 34367
Predicted Location: 24.5N, 176.8E



__________________


L

Posts: 131433
Date:
RE: NAVSTAR 47 (PAM-D) rocket body re-entry
Permalink  
 


Update
The Delta-7925 rocket body (PAM-D) is predicted to re-enter the Earths atmosphere on the 19th June, 2011 @ --:-- GMT -- hours.

NAVSTAR 47 RB (PAM-D)
1 26362U 00025C 11165.67231856 .02255115 47881-5 96665-3 0 4385
2 26362 038.6407 244.0335 0252753 163.9796 329.3343 15.78395580342417

Period: 91.30 minutes
Inclination: 38.64
Apogee: 513 km
Perigee: 164 km
Revolution Number: -
Predicted Location: -



__________________


L

Posts: 131433
Date:
Permalink  
 

Update
The Delta-7925 rocket body (PAM-D) is predicted to re-enter the Earths atmosphere on the 18th June, 2011 @ --:-- GMT -- hours.

NAVSTAR 47 RB (PAM-D)
1 26362U 00025C 11160.74714658 .01715050 49307-5 10041-2 0 4245
2 26362 038.6442 275.6970 0325977 122.7622 240.5018 15.59101441341648

Period: 92.41 minutes
Inclination: 38.64
Apogee: 616 km
Perigee: 170 km
Revolution Number: -
Predicted Location: -



__________________


L

Posts: 131433
Date:
Permalink  
 

Update
The Delta-7925 rocket body (PAM-D) is predicted to re-enter the Earths atmosphere on the 16th June, 2011 @ --:-- GMT -- hours.

NAVSTAR 47 RB (PAM-D)
1 26362U 00025C 11154.17215179 .01285637 49418-5 96780-3 0 4071
2 26362 038.6474 316.8089 0400520 069.2606 295.0705 15.39844984340626

Period: 93.7 minutes
Inclination: 38.66
Apogee: 737 km
Perigee: 175 km
Revolution Number: -
Predicted Location: -

NAVSTAR47b.gif
Expand (68kb, 854 x 558)



__________________


L

Posts: 131433
Date:
Permalink  
 

Update
The Delta-7925 rocket body (PAM-D) is predicted to re-enter the Earths atmosphere on the 19th June, 2011 @ --:-- GMT -- hours.

NAVSTAR 47 RB (PAM-D)
1 26362U 00025C 11145.81333455 .01048053 43323-5 97286-3 0 3888
2 26362 038.6581 007.5730 0482705 002.7781 357.5559 15.19118390339344

Period: 94.89 minutes
Inclination: 38.66
Apogee: 850 km
Perigee: 176 km
Revolution Number: -
Predicted Location: -



__________________


L

Posts: 131433
Date:
Permalink  
 

Update
The Delta-7925 rocket body (PAM-D) is predicted to re-enter the Earths atmosphere on the 23rd June, 2011 @ --:-- GMT -- hours.

NAVSTAR 47 RB (PAM-D)
1 26362U 00025C 11137.95234462 +.00761560 +35859-5 +78705-3 0 03752
2 26362 038.6635 054.1236 0537764 301.8094 053.1389 15.05512993338159

Period: 95.71 minutes
Inclination: 38.66
Apogee: 929 km
Perigee: 178 km
Revolution Number: -
Predicted Location: -



__________________
1 2  >  Last»  | Page of 2  sorted by
 
Quick Reply

Please log in to post quick replies.



Create your own FREE Forum
Report Abuse
Powered by ActiveBoard